2021-11-11 00:03:27 r, 19.74m,0000000001Hz,0000429450c,0000000.932s, 014.1C,00002191
2021-11-11 00:13:24 r, 19.67m,0000000001Hz,0000402780c,0000000.874s, 013.8C,00002191
2021-11-11 00:23:27 r, 19.59m,0000000002Hz,0000371333c,0000000.806s, 013.2C,00002191
2021-11-11 00:33:25 r, 19.57m,0000000002Hz,0000365105c,0000000.792s, 013.2C,00002191
2021-11-11 00:43:24 r, 19.48m,0000000001Hz,0000339677c,0000000.737s, 013.2C,00002191
2021-11-11 00:53:27 r, 19.38m,0000000001Hz,0000307464c,0000000.667s, 012.8C,00002191
2021-11-11 01:03:25 r, 19.40m,0000000002Hz,0000313861c,0000000.681s, 012.8C,00002191
2021-11-11 01:13:24 r, 19.35m,0000000001Hz,0000299166c,0000000.649s, 012.8C,00002191
2021-11-11 01:23:25 r, 19.26m,0000000001Hz,0000276198c,0000000.599s, 012.8C,00002191
2021-11-11 01:33:25 r, 19.27m,0000000001Hz,0000276481c,0000000.600s, 012.8C,00002191
2021-11-11 01:43:24 r, 19.23m,0000000001Hz,0000269764c,0000000.585s, 012.8C,00002191
2021-11-11 01:53:26 r, 19.16m,0000000002Hz,0000250507c,0000000.544s, 012.8C,00002191
2021-11-11 02:03:25 r, 19.13m,0000000002Hz,0000243493c,0000000.528s, 012.8C,00002191
2021-11-11 02:13:24 r, 19.11m,0000000002Hz,0000237799c,0000000.516s, 012.8C,00002191
2021-11-11 02:23:27 r, 19.05m,0000000002Hz,0000226604c,0000000.492s, 012.8C,00002191
2021-11-11 02:33:25 r, 19.08m,0000000002Hz,0000231759c,0000000.503s, 012.8C,00002191
2021-11-11 02:43:24 r, 19.18m,0000000001Hz,0000256058c,0000000.556s, 013.2C,00002191
2021-11-11 02:53:27 r, 19.14m,0000000002Hz,0000246131c,0000000.534s, 013.2C,00002191
2021-11-11 03:03:25 r, 19.13m,0000000001Hz,0000242938c,0000000.527s, 013.2C,00002191
2021-11-11 03:13:24 r, 19.06m,0000000002Hz,0000227642c,0000000.494s, 013.2C,00002191
2021-11-11 03:23:25 r, 19.01m,0000000002Hz,0000218685c,0000000.475s, 013.2C,00002191
2021-11-11 03:33:26 r, 19.01m,0000000002Hz,0000217557c,0000000.472s, 013.2C,00002191
2021-11-11 03:43:24 r, 18.96m,0000000002Hz,0000209071c,0000000.454s, 013.2C,00002191
2021-11-11 03:53:26 r, 18.83m,0000000002Hz,0000185696c,0000000.403s, 013.2C,00002191
2021-11-11 04:03:25 r, 18.85m,0000000003Hz,0000189177c,0000000.411s, 013.2C,00002191
2021-11-11 04:13:24 r, 18.95m,0000000002Hz,0000206364c,0000000.448s, 013.2C,00002191
2021-11-11 04:23:25 r, 18.88m,0000000002Hz,0000192920c,0000000.419s, 013.2C,00002191
2021-11-11 04:33:27 r, 18.93m,0000000002Hz,0000202410c,0000000.439s, 013.2C,00002191
2021-11-11 04:43:24 r, 18.87m,0000000003Hz,0000192138c,0000000.417s, 013.2C,00002191
2021-11-11 04:53:27 r, 18.79m,0000000002Hz,0000178504c,0000000.387s, 013.2C,00002191
2021-11-11 05:03:25 r, 18.71m,0000000003Hz,0000166985c,0000000.362s, 013.2C,00002191
2021-11-11 05:13:26 r, 18.63m,0000000003Hz,0000154767c,0000000.336s, 013.2C,00002191
2021-11-11 05:23:24 r, 18.49m,0000000003Hz,0000136567c,0000000.296s, 013.2C,00002191
2021-11-11 05:33:26 r, 18.46m,0000000003Hz,0000133508c,0000000.290s, 013.2C,00002191
2021-11-11 05:43:25 r, 18.40m,0000000004Hz,0000125699c,0000000.273s, 013.2C,00002191
2021-11-11 05:53:24 r, 18.46m,0000000004Hz,0000133818c,0000000.290s, 013.5C,00002191
2021-11-11 06:03:25 r, 18.52m,0000000004Hz,0000140598c,0000000.305s, 013.5C,00002191
2021-11-11 06:13:27 r, 18.46m,0000000003Hz,0000133724c,0000000.290s, 013.5C,00002191
2021-11-11 06:23:24 r, 18.40m,0000000004Hz,0000125738c,0000000.273s, 013.5C,00002191
2021-11-11 06:33:27 r, 18.12m,0000000005Hz,0000096983c,0000000.210s, 013.5C,00002191
2021-11-11 06:43:25 r, 17.31m,0000000010Hz,0000045868c,0000000.100s, 013.5C,00002191
2021-11-11 06:53:24 r, 15.99m,0000000033Hz,0000013687c,0000000.030s, 013.5C,00002191
2021-11-11 07:03:27 r, 13.85m,0000000243Hz,0000000000c,0000000.000s, 013.5C,00002191
2021-11-11 07:13:25 r, 12.06m,0000001264Hz,0000000000c,0000000.000s, 013.8C,00002191
2021-11-11 07:23:24 r, 10.33m,0000006223Hz,0000000000c,0000000.000s, 013.8C,00002191
2021-11-11 07:33:25 r, 08.86m,0000024094Hz,0000000000c,0000000.000s, 013.5C,00002191
2021-11-11 07:43:26 r, 08.04m,0000051590Hz,0000000000c,0000000.000s, 013.5C,00002191
2021-11-11 07:53:24 r, 07.33m,0000098643Hz,0000000000c,0000000.000s, 013.8C,00002191
2021-11-11 08:03:26 r, 06.75m,0000168223Hz,0000000000c,0000000.000s, 013.8C,00002191
2021-11-11 08:13:25 r, 06.02m,0000330367Hz,0000000000c,0000000.000s, 013.8C,00002191
2021-11-11 08:23:24 r, 00.00m,0000466030Hz,0000000000c,0000000.000s, 013.8C,00002191
2021-11-11 08:33:25 r, 00.00m,0000588567Hz,0000000000c,0000000.000s, 013.8C,00002191
2021-11-11 08:43:27 r, 00.00m,0000598354Hz,0000000000c,0000000.000s, 014.1C,00002191
2021-11-11 08:53:24 r, 00.00m,0000598394Hz,0000000000c,0000000.000s, 014.1C,00002191
2021-11-11 09:03:27 r, 00.00m,0000598368Hz,0000000000c,0000000.000s, 014.1C,00002191
2021-11-11 09:13:25 r, 00.00m,0000598319Hz,0000000000c,0000000.000s, 014.5C,00002191
2021-11-11 09:23:24 r, 00.00m,0000598287Hz,0000000000c,0000000.000s, 014.1C,00002191
2021-11-11 09:33:25 r, 00.00m,0000598341Hz,0000000000c,0000000.000s, 014.5C,00002191
2021-11-11 09:43:25 r, 00.00m,0000598223Hz,0000000000c,0000000.000s, 014.5C,00002191
2021-11-11 09:53:24 r, 00.00m,0000598272Hz,0000000000c,0000000.000s, 014.8C,00002191
2021-11-11 10:03:25 r, 00.00m,0000598194Hz,0000000000c,0000000.000s, 014.5C,00002191
2021-11-11 10:13:27 r, 00.00m,0000598320Hz,0000000000c,0000000.000s, 014.8C,00002191
2021-11-11 10:23:24 r, 00.00m,0000598147Hz,0000000000c,0000000.000s, 014.8C,00002191
2021-11-11 10:33:26 r, 00.00m,0000598138Hz,0000000000c,0000000.000s, 015.1C,00002191
2021-11-11 10:43:25 r, 00.00m,0000598108Hz,0000000000c,0000000.000s, 015.4C,00002191
2021-11-11 10:53:24 r, 00.00m,0000598149Hz,0000000000c,0000000.000s, 015.4C,00002191
2021-11-11 11:03:27 r, 00.00m,0000598153Hz,0000000000c,0000000.000s, 015.4C,00002191
2021-11-11 11:13:25 r, 00.00m,0000598091Hz,0000000000c,0000000.000s, 015.4C,00002191
2021-11-11 11:23:24 r, 00.00m,0000598098Hz,0000000000c,0000000.000s, 015.4C,00002191
2021-11-11 11:33:27 r, 00.00m,0000598159Hz,0000000000c,0000000.000s, 015.4C,00002191
2021-11-11 11:43:25 r, 00.00m,0000598140Hz,0000000000c,0000000.000s, 015.4C,00002191
2021-11-11 11:53:24 r, 00.00m,0000598123Hz,0000000000c,0000000.000s, 015.4C,00002191
2021-11-11 12:03:25 r, 00.00m,0000598115Hz,0000000000c,0000000.000s, 015.4C,00002191
2021-11-11 12:13:26 r, 00.00m,0000598145Hz,0000000000c,0000000.000s, 015.1C,00002191
2021-11-11 12:23:24 r, 00.00m,0000598098Hz,0000000000c,0000000.000s, 015.1C,00002191
2021-11-11 12:33:26 r, 00.00m,0000598184Hz,0000000000c,0000000.000s, 015.1C,00002191
2021-11-11 12:43:25 r, 00.00m,0000598131Hz,0000000000c,0000000.000s, 015.1C,00002191
2021-11-11 12:53:24 r, 00.00m,0000598043Hz,0000000000c,0000000.000s, 015.1C,00002191
2021-11-11 13:03:26 r, 00.00m,0000598088Hz,0000000000c,0000000.000s, 015.1C,00002191
2021-11-11 13:13:25 r, 00.00m,0000597939Hz,0000000000c,0000000.000s, 015.1C,00002191
2021-11-11 13:23:24 r, 00.00m,0000598060Hz,0000000000c,0000000.000s, 015.1C,00002191
2021-11-11 13:33:27 r, 00.00m,0000598059Hz,0000000000c,0000000.000s, 015.1C,00002191
2021-11-11 13:43:25 r, 00.00m,0000598079Hz,0000000000c,0000000.000s, 015.1C,00002191
2021-11-11 13:53:25 r, 00.00m,0000598216Hz,0000000000c,0000000.000s, 014.8C,00002191
2021-11-11 14:03:27 r, 00.00m,0000598184Hz,0000000000c,0000000.000s, 014.8C,00002191
2021-11-11 14:13:25 r, 00.00m,0000598104Hz,0000000000c,0000000.000s, 014.5C,00002191
2021-11-11 14:23:24 r, 00.00m,0000598213Hz,0000000000c,0000000.000s, 014.5C,00002191
2021-11-11 14:33:25 r, 00.00m,0000598090Hz,0000000000c,0000000.000s, 014.5C,00002191
2021-11-11 14:43:26 r, 00.00m,0000598363Hz,0000000000c,0000000.000s, 014.1C,00002191
2021-11-11 14:53:24 r, 00.00m,0000598225Hz,0000000000c,0000000.000s, 013.8C,00002191
2021-11-11 15:03:26 r, 00.00m,0000598268Hz,0000000000c,0000000.000s, 013.8C,00002191
2021-11-11 15:13:25 r, 00.00m,0000598299Hz,0000000000c,0000000.000s, 013.8C,00002191
2021-11-11 15:23:24 r, 00.00m,0000598267Hz,0000000000c,0000000.000s, 013.8C,00002191
2021-11-11 15:33:25 r, 00.00m,0000598333Hz,0000000000c,0000000.000s, 013.5C,00002191
2021-11-11 15:43:27 r, 00.00m,0000534483Hz,0000000000c,0000000.000s, 013.5C,00002191
2021-11-11 15:53:24 r, 00.00m,0000492010Hz,0000000000c,0000000.000s, 013.5C,00002191
2021-11-11 16:03:27 r, 05.83m,0000392490Hz,0000000000c,0000000.000s, 013.2C,00002191
2021-11-11 16:13:25 r, 06.23m,0000273406Hz,0000000000c,0000000.000s, 013.2C,00002191
2021-11-11 16:23:24 r, 06.41m,0000230903Hz,0000000000c,0000000.000s, 012.8C,00002191
2021-11-11 16:33:25 r, 07.10m,0000122671Hz,0000000000c,0000000.000s, 012.8C,00002191
2021-11-11 16:43:26 r, 07.71m,0000069808Hz,0000000000c,0000000.000s, 012.5C,00002191
2021-11-11 16:53:24 r, 08.55m,0000032116Hz,0000000000c,0000000.000s, 012.5C,00002191
2021-11-11 17:03:26 r, 09.89m,0000009400Hz,0000000000c,0000000.000s, 012.5C,00002191
2021-11-11 17:13:25 r, 11.69m,0000001789Hz,0000000000c,0000000.000s, 012.5C,00002191
2021-11-11 17:23:24 r, 13.63m,0000000299Hz,0000000000c,0000000.000s, 012.2C,00002191
2021-11-11 17:33:25 r, 15.32m,0000000063Hz,0000007369c,0000000.016s, 012.5C,00002191
2021-11-11 17:43:27 r, 16.84m,0000000015Hz,0000029774c,0000000.065s, 012.2C,00002191
2021-11-11 17:53:24 r, 17.35m,0000000010Hz,0000047689c,0000000.103s, 012.2C,00002191
2021-11-11 18:03:27 r, 17.40m,0000000009Hz,0000049930c,0000000.108s, 012.2C,00002191
2021-11-11 18:13:25 r, 17.53m,0000000008Hz,0000056248c,0000000.122s, 012.2C,00002191
2021-11-11 18:23:24 r, 17.54m,0000000008Hz,0000056814c,0000000.123s, 012.2C,00002191
2021-11-11 18:33:27 r, 17.47m,0000000008Hz,0000053263c,0000000.116s, 012.2C,00002191
2021-11-11 18:43:25 r, 17.36m,0000000010Hz,0000048317c,0000000.105s, 012.2C,00002191
2021-11-11 18:53:24 r, 17.26m,0000000011Hz,0000044238c,0000000.096s, 012.2C,00002191
2021-11-11 19:03:25 r, 17.31m,0000000010Hz,0000046008c,0000000.100s, 011.9C,00002191
2021-11-11 19:13:26 r, 17.33m,0000000009Hz,0000046759c,0000000.101s, 011.9C,00002191
2021-11-11 19:23:24 r, 17.37m,0000000010Hz,0000048802c,0000000.106s, 011.9C,00002191
2021-11-11 19:33:26 r, 17.41m,0000000009Hz,0000050567c,0000000.110s, 011.9C,00002191
2021-11-11 19:43:26 r, 17.39m,0000000010Hz,0000049432c,0000000.107s, 011.9C,00002191
2021-11-11 19:53:24 r, 17.29m,0000000010Hz,0000045101c,0000000.098s, 011.6C,00002191
2021-11-11 20:03:26 r, 17.37m,0000000009Hz,0000048814c,0000000.106s, 011.6C,00002191
2021-11-11 20:13:27 r, 17.36m,0000000010Hz,0000048071c,0000000.104s, 011.6C,00002191
2021-11-11 20:23:24 r, 17.28m,0000000011Hz,0000045048c,0000000.098s, 011.6C,00002191
2021-11-11 20:33:27 r, 17.15m,0000000011Hz,0000039810c,0000000.086s, 011.6C,00002191
2021-11-11 20:43:25 r, 17.09m,0000000012Hz,0000037751c,0000000.082s, 011.6C,00002191
2021-11-11 20:53:24 r, 17.11m,0000000012Hz,0000038337c,0000000.083s, 011.6C,00002191
2021-11-11 21:03:27 r, 17.16m,0000000012Hz,0000040404c,0000000.088s, 011.6C,00002191
2021-11-11 21:13:25 r, 17.11m,0000000012Hz,0000038446c,0000000.083s, 011.6C,00002191
2021-11-11 21:23:24 r, 17.05m,0000000012Hz,0000036604c,0000000.079s, 011.6C,00002191
2021-11-11 21:33:25 r, 17.12m,0000000012Hz,0000038845c,0000000.084s, 011.6C,00002191
2021-11-11 21:43:26 r, 17.30m,0000000010Hz,0000045701c,0000000.099s, 011.6C,00002191
2021-11-11 21:53:24 r, 17.38m,0000000009Hz,0000048922c,0000000.106s, 011.6C,00002191
2021-11-11 22:03:26 r, 17.40m,0000000009Hz,0000049984c,0000000.108s, 011.6C,00002191
2021-11-11 22:13:25 r, 17.45m,0000000008Hz,0000052656c,0000000.114s, 011.6C,00002191
2021-11-11 22:23:26 r, 17.46m,0000000008Hz,0000052873c,0000000.115s, 011.6C,00002191
2021-11-11 22:33:24 r, 17.47m,0000000009Hz,0000053443c,0000000.116s, 011.6C,00002191
2021-11-11 22:43:27 r, 17.57m,0000000007Hz,0000058588c,0000000.127s, 011.6C,00002191
2021-11-11 22:53:25 r, 17.74m,0000000007Hz,0000068302c,0000000.148s, 011.2C,00002191
2021-11-11 23:03:24 r, 17.73m,0000000007Hz,0000067849c,0000000.147s, 011.2C,00002191
2021-11-11 23:13:25 r, 17.85m,0000000006Hz,0000076118c,0000000.165s, 011.2C,00002191
2021-11-11 23:23:27 r, 18.02m,0000000005Hz,0000088187c,0000000.191s, 011.2C,00002191
2021-11-11 23:33:24 r, 18.02m,0000000005Hz,0000088358c,0000000.192s, 011.2C,00002191
2021-11-11 23:43:26 r, 17.81m,0000000006Hz,0000073069c,0000000.159s, 011.2C,00002191
2021-11-11 23:53:25 r, 17.69m,0000000007Hz,0000065251c,0000000.142s, 011.2C,00002191
